STARLINK-3831, 52332

Orbit data source: Space-Track

STARLINK-3831, 52332 is a payload satellite owned by SpaceX/Seattle (US) in LEO that was launched on Fri, 29 Apr 2022 UTC via an FALCON 9 launch vehicle from the Air Force Eastern Test Range (AFETR). Payload-class satellites include a variety of spacecraft equipped with specific instruments for various scientific and technological missions. These include communications satellites like Starlink; space stations such as the ISS; scientific satellites like the Hubble; Earth observation satellites from companies like Planet Labs, Umbra, and HawkEye 360; GPS; miniature CubeSats for education and research; and military/defense satellites.

Loading next visibility...
Identifier
52332, 2022-045B
Orbit
LEO
Country
Flag of USUS
Related business
Manufacturer
SpaceX/Seattle
Mission
Operational Commercial Communications
Bus & Motor
STARLINK, Unknown motor
Mass
297 kg wet, ~275 kg dry
Launch date (UTC)
2022-04-29 (4 years ago)
Launch vehicle
FALCON 9
Launch site
Air Force Eastern Test Range (AFETR)
Object type
Payload
Rocket body
Debris
Shape & HBR
Box + 1 Pan, 10.1 m
Radar Cross Section
11.087 m², Large (>1 m²)

Expand to show TLE details & history
Last TLE update: 1 day ago

TLE from 1 day ago
0 STARLINK-3831
1 52332U 22045B   25349.07095496  .00005072  00000-0  33643-3 0  9997
2 52332  53.2152 228.9994 0001386  83.8180 276.2970 15.08849925202866
Epoch: 2025-12-15T01:42Z
TLE epoch observation values (Epoch: 2025-12-15T01:42:10.508Z)
Latitude
-0.00002°
Longitude
119.48081°
Altitude
540.505 km
Speed
7.593 km/s
True Right ascension
15h 15m 59s
True Declination
0° 00' 00"
Sunlit
Object was in daylight at epoch
Visualization orbit readout
Latitude
Unknown
Longitude
Unknown
Altitude
Unknown
Speed
Unknown
Apparent Right ascension
Unknown
Apparent Declination
Unknown
Sunlit
N/A
Visualization observer readout
Local Sidereal Time
00:24:33
Azimuth
Unknown
Elevation
Unknown
Doppler factor
Unknown
Orbital elements
Apogee altitude
540.917 km
Perigee altitude
538.999 km
Semi-major axis
6,918.095 km
Eccentricity
0.00014
Inclination
53.2152°
RAAN
228.9994°
Arg. of periapsis
83.818°
True anomaly
276.28121°
Mean anomaly
276.297°
Eccentric anomaly
276.28911°
Mean motion
3.77193 °/min
Orbital period
95.44 mins
BSTAR
0.00033643
Loading maneuver chart data...
Computing Atmospheric mass density...
Loading historical data...
Loading historical data...
Loading historical data...
Loading historical data...
Loading historical data...
Loading historical data...
Loading historical data...

Documentation

Showing up to 5 results
|